GW1732 Weather Reports


time (UTC)temp
C
wind
direction
speed
KPH
gust
KPH
rain 1hr
cm
rain 24hr
cm
rain mn
cm
humidity
%
barometer
mb
20260507202651 28 23 0.0 0.0 0.00 0.00 0.00 61 988.4
20260507202141 28 23 0.0 0.0 0.00 0.00 0.00 62 988.2
20260507201631 28 23 0.0 0.0 0.00 0.00 0.00 62 988.5
20260507201121 28 0 0.0 0.0 0.00 0.00 0.00 62 988.4
20260507200611 28 315 0.0 0.0 0.00 0.00 0.00 63 988.6
20260507200109 28 0 0.0 0.0 0.00 0.00 0.00 62 988.7
20260507195041 28 315 0.0 0.0 0.00 0.00 0.00 60 988.9
20260507194530 28 315 0.0 0.0 0.00 0.00 0.00 60 988.7
20260507194019 28 0 0.0 0.0 0.00 0.00 0.00 61 988.7
20260507193509 28 338 0.0 0.0 0.00 0.00 0.00 61 988.7
20260507192959 28 293 0.0 0.0 0.00 0.00 0.00 60 988.4
20260507192449 28 338 0.0 0.0 0.00 0.00 0.00 61 988.5
20260507191939 28 293 0.0 0.0 0.00 0.00 0.00 61 988.6
20260507191429 28 338 0.0 0.0 0.00 0.00 0.00 60 988.5
20260507190919 28 315 0.0 0.0 0.00 0.00 0.00 60 988.4
20260507190409 28 338 0.0 0.0 0.00 0.00 0.00 59 988.1
20260507185859 28 338 0.0 0.0 0.00 0.00 0.00 59 988.1
20260507185349 28 45 0.0 0.0 0.00 0.00 0.00 59 987.7
20260507184839 28 293 0.0 0.0 0.00 0.00 0.00 59 988.1
20260507184327 28 315 0.0 0.0 0.00 0.00 0.00 60 987.9
20260507182049 28 315 0.0 0.0 0.00 0.00 0.00 59 988.2
20260507181540 28 23 0.0 0.0 0.00 0.00 0.00 59 987.9
20260507181029 28 0 0.0 0.0 0.00 0.00 0.00 59 987.9
20260507180524 28 338 0.0 0.0 0.00 0.00 0.00 58 987.8
20260507180011 28 0 0.0 0.0 0.00 0.00 0.00 59 987.6
20260507174952 28 23 0.0 0.0 0.00 0.00 0.00 59 987.8
20260507174442 28 23 0.0 0.0 0.00 0.00 0.00 59 988.1
20260507173931 28 338 0.0 0.0 0.00 0.00 0.00 57 988.1
20260507173421 28 338 0.0 0.0 0.00 0.00 0.00 58 988.1
20260507172909 28 338 0.0 0.0 0.00 0.00 0.00 57 987.9
20260507165450 28 23 0.0 0.0 0.00 0.00 0.00 59 988.1
20260507164940 28 0 0.0 0.0 0.00 0.00 0.00 60 988.5
20260507164429 28 23 0.0 0.0 0.00 0.00 0.00 60 988.6
20260507163409 28 23 0.0 0.0 0.00 0.00 0.00 59 989.0
20260507162900 28 23 0.0 0.0 0.00 0.00 0.00 58 989.0
20260507162349 29 338 0.0 0.0 0.00 0.00 0.00 58 989.3
20260507161840 28 0 0.0 0.0 0.00 0.00 0.00 60 989.2
20260507161329 28 338 0.0 0.0 0.00 0.00 0.00 62 989.4
20260507160819 28 315 0.0 0.0 0.00 0.00 0.00 62 989.8
20260507155249 28 23 0.0 0.0 0.00 0.00 0.00 60 990.3
20260507154738 28 0 0.0 0.0 0.00 0.00 0.00 59 990.3
20260507154230 28 0 0.0 0.0 0.00 0.00 0.00 59 990.7
20260507153718 29 0 0.0 0.0 0.00 0.00 0.00 57 990.7
20260507153208 29 23 0.0 0.0 0.00 0.00 0.00 59 990.9
20260507152148 29 23 0.0 0.0 0.00 0.00 0.00 60 991.4
20260507151638 28 23 0.0 0.0 0.00 0.00 0.00 62 991.5
20260507151129 27 0 0.0 0.0 0.00 0.00 0.00 64 991.5
20260507150618 27 338 0.0 0.0 0.00 0.00 0.00 65 991.5
20260507150109 27 315 0.0 0.0 0.00 0.00 0.00 63 991.7
20260507144537 27 23 0.0 0.0 0.00 0.00 0.00 66 991.9
20260507144028 27 23 0.0 0.0 0.00 0.00 0.00 67 992.0
20260507143517 26 23 0.0 0.0 0.00 0.00 0.00 68 992.2
20260507143013 26 0 0.0 0.0 0.00 0.00 0.00 70 992.3
20260507142457 26 338 0.0 0.0 0.00 0.00 0.00 70 992.7
20260507141947 26 0 0.0 0.0 0.00 0.00 0.00 70 992.9
20260507141436 26 45 0.0 0.0 0.00 0.00 0.00 69 993.2
20260507140927 26 0 0.0 0.0 0.00 0.00 0.00 69 993.2
20260507140426 26 23 0.0 0.0 0.00 0.00 0.00 69 993.5
20260507135907 26 23 0.0 0.0 0.00 0.00 0.00 70 993.8
20260507135357 26 338 0.0 0.0 0.00 0.00 0.00 69 994.0
20260507134846 26 0 0.0 0.0 0.00 0.00 0.00 70 993.8
20260507133826 26 0 0.0 0.0 0.00 0.00 0.00 70 994.3
20260507133315 26 0 0.0 0.0 0.00 0.00 0.00 70 994.3
20260507132805 26 338 0.0 0.0 0.00 0.00 0.00 71 994.2
20260507132256 26 0 0.0 0.0 0.00 0.00 0.00 71 994.2
20260507131235 25 0 0.0 0.0 0.00 0.00 0.00 72 994.2
20260507130725 25 338 0.0 0.0 0.00 0.00 0.00 71 994.3
20260507130215 25 338 0.0 0.0 0.00 0.00 0.00 72 994.4
20260507125705 25 23 0.0 0.0 0.00 0.00 0.00 74 994.2
20260507124135 25 0 0.0 0.0 0.00 0.00 0.00 75 994.6
20260507123114 24 0 0.0 0.0 0.00 0.00 0.00 76 994.6
20260507122604 24 23 0.0 0.0 0.00 0.00 0.00 77 995.0
20260507121543 24 0 0.0 0.0 0.00 0.00 0.00 78 994.8
20260507120524 24 0 0.0 0.0 0.00 0.00 0.00 78 995.1
20260507120014 24 23 0.0 0.0 0.00 0.00 0.00 77 995.0
20260507115503 24 23 0.0 0.0 0.00 0.00 0.00 77 995.0
20260507114444 24 0 0.0 0.0 0.00 0.00 0.00 76 994.9
20260507113423 24 23 0.0 0.0 0.00 0.00 0.00 77 994.7
20260507112913 24 0 0.0 0.0 0.00 0.00 0.00 77 994.6
20260507112403 24 23 0.0 0.0 0.00 0.00 0.00 76 994.5
20260507111853 24 0 0.0 0.0 0.00 0.00 0.00 76 994.6
20260507111342 24 0 0.0 0.0 0.00 0.00 0.00 77 994.7
20260507110833 24 338 0.0 0.0 0.00 0.00 0.00 76 994.6
20260507110325 24 0 0.0 0.0 0.00 0.00 0.00 77 994.5
20260507105812 24 0 0.0 0.0 0.00 0.00 0.00 77 994.7
20260507105310 24 0 0.0 0.0 0.00 0.00 0.00 77 994.6
20260507104752 24 338 0.0 0.0 0.00 0.00 0.00 76 994.5
20260507104242 24 0 0.0 0.0 0.00 0.00 0.00 76 994.7
20260507103222 24 0 0.0 0.0 0.00 0.00 0.00 76 994.4
20260507102711 24 0 0.0 0.0 0.00 0.00 0.00 76 994.4
20260507102202 24 338 0.0 0.0 0.00 0.00 0.00 75 994.4
20260507101651 24 23 0.0 0.0 0.00 0.00 0.00 75 994.4
20260507101141 24 23 0.0 0.0 0.00 0.00 0.00 75 994.3
20260507100631 24 0 0.0 0.0 0.00 0.00 0.00 75 994.2
20260507095611 24 23 0.0 0.0 0.00 0.00 0.00 75 994.5
20260507095101 24 0 0.0 0.0 0.00 0.00 0.00 75 994.7
20260507094547 25 338 0.0 0.0 0.00 0.00 0.00 75 994.5
20260507093531 24 0 0.0 0.0 0.00 0.00 0.00 75 994.7
20260507093021 25 0 0.0 0.0 0.00 0.00 0.00 74 994.6
20260507092510 25 0 0.0 0.0 0.00 0.00 0.00 75 994.4
20260507092001 25 338 0.0 0.0 0.00 0.00 0.00 75 994.7
20260507091450 24 23 0.0 0.0 0.00 0.00 0.00 75 994.7
20260507090940 25 338 0.0 0.0 0.00 0.00 0.00 75 994.5
20260507090429 25 0 0.0 0.0 0.00 0.00 0.00 75 994.6
20260507085920 25 0 0.0 0.0 0.00 0.00 0.00 75 994.6
20260507084900 25 338 0.0 0.0 0.00 0.00 0.00 75 994.6
20260507084349 25 338 0.0 0.0 0.00 0.00 0.00 75 994.7
20260507082309 25 23 0.0 0.0 0.00 0.00 0.00 74 994.7
20260507081759 25 23 0.0 0.0 0.00 0.00 0.00 74 994.7
20260507081249 25 0 0.0 0.0 0.00 0.00 0.00 73 994.5
20260507080738 25 45 0.0 0.0 0.00 0.00 0.00 73 994.3
20260507080228 25 0 0.0 0.0 0.00 0.00 0.00 72 994.4
20260507075718 25 0 0.0 0.0 0.00 0.00 0.00 73 994.5
20260507075208 25 23 0.0 0.0 0.00 0.00 0.00 73 994.4
20260507074658 25 338 0.0 0.0 0.00 0.00 0.00 73 994.4
20260507073638 26 0 0.0 0.0 0.00 0.00 0.00 72 994.5
20260507073128 25 0 0.0 0.0 0.00 0.00 0.00 72 994.7
20260507072617 26 0 0.0 0.0 0.00 0.00 0.00 72 994.7
20260507072107 25 23 0.0 0.0 0.00 0.00 0.00 72 994.9
20260507071557 26 0 0.0 0.0 0.00 0.00 0.00 71 994.7
20260507071047 26 0 0.0 0.0 0.00 0.00 0.00 71 995.0
20260507070538 26 0 0.0 0.0 0.00 0.00 0.00 70 994.9
20260507070027 26 0 0.0 0.0 0.00 0.00 0.00 71 994.9
20260507065517 26 0 0.0 0.0 0.00 0.00 0.00 70 994.9
20260507065006 26 338 0.0 0.0 0.00 0.00 0.00 69 995.1
20260507064456 26 0 0.0 0.0 0.00 0.00 0.00 68 995.1
20260507063947 26 338 0.0 0.0 0.00 0.00 0.00 69 995.2
20260507063437 26 0 0.0 0.0 0.00 0.00 0.00 68 995.0
20260507062926 26 23 0.0 0.0 0.00 0.00 0.00 69 995.1
20260507062416 26 45 0.0 0.0 0.00 0.00 0.00 68 995.1
20260507061907 26 0 0.0 0.0 0.00 0.00 0.00 68 995.2
20260507061412 26 0 0.0 0.0 0.00 0.00 0.00 68 995.3
20260507060846 26 45 0.0 0.0 0.00 0.00 0.00 67 995.4
20260507060336 26 45 0.0 0.0 0.00 0.00 0.00 68 995.3
20260507055825 26 338 0.0 0.0 0.00 0.00 0.00 68 995.4
20260507055315 26 23 0.0 0.0 0.00 0.00 0.00 67 995.6
20260507054805 26 0 0.0 0.0 0.00 0.00 0.00 68 995.6
20260507054255 26 0 0.0 0.0 0.00 0.00 0.00 69 995.7
20260507053745 26 45 0.0 0.0 0.00 0.00 0.00 69 995.8
20260507052725 26 23 0.0 0.0 0.00 0.00 0.00 70 995.7
20260507052215 26 45 0.0 0.0 0.00 0.00 0.00 71 995.9
20260507051704 26 23 0.0 0.0 0.00 0.00 0.00 71 995.7
20260507051155 26 0 0.0 0.0 0.00 0.00 0.00 72 996.0
20260507050644 26 23 0.0 0.0 0.00 0.00 0.00 73 996.1
20260507050134 26 45 0.0 0.0 0.00 0.00 0.00 73 996.3
20260507045624 26 23 0.0 0.0 0.00 0.00 0.00 73 996.4
20260507045114 26 0 0.0 0.0 0.00 0.00 0.00 74 996.5
20260507044054 26 0 0.0 0.0 0.00 0.00 0.00 73 996.3
20260507043544 26 23 0.0 0.0 0.00 0.00 0.00 74 996.6
20260507043043 26 0 0.0 0.0 0.00 0.00 0.00 73 996.4
20260507042523 26 0 0.0 0.0 0.00 0.00 0.00 74 996.8
20260507042013 26 338 0.0 0.0 0.00 0.00 0.00 73 996.8
20260507041503 26 0 0.0 0.0 0.00 0.00 0.00 73 996.8
20260507040953 26 23 0.0 0.0 0.00 0.00 0.00 73 997.1
20260507035933 26 23 0.0 0.0 0.00 0.00 0.00 74 997.0
20260507035422 26 23 0.0 0.0 0.00 0.00 0.00 73 996.9
20260507034912 26 23 0.0 0.0 0.00 0.00 0.00 73 996.9
20260507034404 26 0 0.0 0.0 0.00 0.00 0.00 73 997.0
20260507033342 26 338 0.0 0.0 0.00 0.00 0.00 73 996.7
20260507032832 26 23 0.0 0.0 0.00 0.00 0.00 73 996.8
20260507031812 26 0 0.0 0.0 0.00 0.00 0.00 73 996.8
20260507031302 26 0 0.0 0.0 0.00 0.00 0.00 73 996.8
20260507030242 26 23 0.0 0.0 0.00 0.00 0.00 73 997.0
20260507025731 26 0 0.0 0.0 0.00 0.00 0.00 73 996.9
20260507025221 26 0 0.0 0.0 0.00 0.00 0.00 74 997.0
20260507024202 26 23 0.0 0.0 0.00 0.00 0.00 75 997.1
20260507022630 25 23 0.0 0.0 0.00 0.00 0.00 76 997.4
20260507022120 25 0 0.0 0.0 0.00 0.00 0.00 76 997.4
20260507021610 26 23 0.0 0.0 0.00 0.00 0.00 77 997.8
20260507020040 26 23 0.0 0.0 0.00 0.00 0.00 77 997.7
20260507015020 26 45 0.0 0.0 0.00 0.00 0.00 76 998.1
20260507014510 26 23 0.0 0.0 0.00 0.00 0.00 76 998.0
20260507013450 26 23 0.0 0.0 0.00 0.00 0.00 77 998.3
20260507012941 26 23 0.0 0.0 0.00 0.00 0.00 78 998.2
20260507012429 26 23 0.0 0.0 0.00 0.00 0.00 77 998.2
20260507011919 26 23 0.0 0.0 0.00 0.00 0.00 77 998.4
20260507011410 26 23 0.0 0.0 0.00 0.00 0.00 77 998.4
20260507010859 26 23 0.0 0.0 0.00 0.00 0.00 77 998.3
20260507010350 26 23 0.0 0.0 0.00 0.00 0.00 77 998.3
20260507005839 26 45 0.0 0.0 0.00 0.00 0.00 77 998.4
20260507005329 26 23 0.0 0.0 0.00 0.00 0.00 79 998.5
20260507004818 25 45 0.0 0.0 0.00 0.00 0.00 80 998.6
20260507004308 25 45 0.0 0.0 0.00 0.00 0.00 81 998.6
20260507003758 25 23 0.0 0.0 0.00 0.00 0.00 82 998.5
20260507003249 25 45 0.0 0.0 0.00 0.00 0.00 82 998.4
20260507002738 25 45 0.0 0.0 0.00 0.00 0.00 83 998.5
20260507002229 25 68 0.0 0.0 0.00 0.00 0.00 83 998.5
20260507001207 25 45 0.0 0.0 0.00 0.00 0.00 83 998.6
20260507000657 25 45 0.0 0.0 0.00 0.00 0.00 83 998.5
20260507000148 25 68 0.0 0.0 0.00 0.00 0.00 84 998.6
20260506235637 25 23 0.0 0.0 0.00 0.00 0.00 83 998.6
20260506234617 25 45 0.0 0.0 0.00 0.00 0.00 83 998.6
20260506234107 25 45 0.0 0.0 0.00 0.00 0.00 83 998.7
20260506233047 25 45 0.0 0.0 0.00 0.00 0.00 83 998.6
20260506232537 25 23 0.0 0.0 0.00 0.00 0.00 83 998.6
20260506231009 25 68 0.0 0.0 0.00 0.00 0.00 83 998.7
20260506230456 25 68 0.0 0.0 0.00 0.00 0.00 83 998.8
20260506225436 25 68 0.0 0.0 0.00 0.00 0.00 82 998.8
20260506224927 25 68 0.0 0.0 0.00 0.00 0.00 82 998.8
20260506223906 25 45 0.0 0.0 0.00 0.00 0.00 81 998.8
20260506223356 25 23 0.0 0.0 0.00 0.00 0.00 81 998.7
20260506222845 25 45 0.0 0.0 0.00 0.00 0.00 81 998.8
20260506222335 25 45 0.0 0.0 0.00 0.00 0.00 81 998.7
20260506221825 25 45 0.0 0.0 0.00 0.00 0.00 81 998.7
20260506220805 26 23 0.0 0.0 0.00 0.00 0.00 78 998.6
20260506215746 26 23 0.0 0.0 0.00 0.00 0.00 77 998.8
20260506215235 26 23 0.0 0.0 0.00 0.00 0.00 76 998.7
20260506213704 27 23 0.0 0.0 0.00 0.00 0.00 75 998.8
20260506213155 27 0 0.0 0.0 0.00 0.00 0.00 75 998.7
20260506212644 27 0 0.0 0.0 0.00 0.00 0.00 75 998.8
20260506212135 27 23 0.0 0.0 0.00 0.00 0.00 74 998.9
20260506211624 27 23 0.0 0.0 0.00 0.00 0.00 74 998.7
20260506211115 27 23 0.0 0.0 0.00 0.00 0.00 74 998.7
20260506210603 27 23 0.0 0.0 0.00 0.00 0.00 73 999.0
20260506210054 27 45 0.0 0.0 0.00 0.00 0.00 74 999.0
20260506204523 28 338 0.0 0.0 0.00 0.00 0.00 72 999.0
20260506204014 28 23 0.0 0.0 0.00 0.00 0.00 72 999.1
20260506203503 28 23 0.0 0.0 0.00 0.00 0.00 74 999.2